Location: Nairn
(57.5833°N, 3.8667°W)
Time: 23:51:25
(UTC+00:00)

S-56A Canister/Altair - Pass Details

Date: 11 October 2022
Orbit: 638 x 2494 km, 38.9° (Epoch: 09 December)

Event Time Altitude Azimuth Distance (km) Brightness Sun altitude
Exits shadow 03:23:05 16° 178° (S) 3,139 10.3 -26.3°
Drops below altitude 10° 03:25:12 10° 164° (SSE) 3,396 10.7 -26.1°
Sets 03:28:32 0° 148° (SSE) 4,072 11.3 -25.7°
